period_start,C,m1,H,J0,J1,J2,J3,J4,J5,JA,JB,JC,JD,JJ,JK,JN,#
2014-02-22 00:00:33,0.24,1.47,0.00,17.81,23.41,26.47,6.24,31.75,1028.55,2054.99,2976.32,2915.25,3168.63,349.82,333.44,5.22,0000 0000 0000 0000 000000
2014-02-22 00:01:33,0.25,1.47,0.00,17.79,23.41,26.48,6.22,31.58,1028.60,2054.99,2975.80,2914.83,3168.23,350.49,334.11,5.23,0000 0000 0000 0000 000000
2014-02-22 00:02:34,0.26,1.48,0.00,17.80,23.41,26.49,6.24,31.83,1028.48,2054.99,2975.26,2914.32,3167.77,350.16,333.76,5.23,0000 0000 0000 0000 000000
2014-02-22 00:03:34,0.28,1.48,0.00,17.79,23.40,26.53,6.27,31.88,1028.40,2054.99,2974.63,2914.01,3167.30,350.49,334.17,5.24,0000 0000 0000 0000 000000
2014-02-22 00:04:34,0.26,1.48,0.00,17.79,23.40,26.48,6.29,31.58,1028.46,2054.99,2974.16,2913.47,3166.90,350.53,333.80,5.24,0000 0000 0000 0000 000000
2014-02-22 00:05:34,0.28,1.48,0.00,17.79,23.40,26.46,6.05,31.75,1028.50,2054.99,2973.52,2913.15,3166.35,349.15,333.03,5.25,0000 0000 0000 0000 000000
2014-02-22 00:06:35,0.23,1.48,0.00,17.79,23.40,26.53,6.28,32.08,1028.61,2054.98,2973.09,2912.76,3166.00,349.73,333.12,5.26,0000 0000 0000 0000 000000
2014-02-22 00:07:35,0.25,1.48,0.00,17.79,23.40,26.53,6.20,31.50,1028.63,2054.97,2972.47,2912.29,3165.41,350.12,333.43,5.26,0000 0000 0000 0000 000000
2014-02-22 00:08:35,0.26,1.49,0.00,17.79,23.40,26.51,6.31,31.71,1028.67,2054.98,2971.96,2912.02,3165.05,350.21,333.88,5.27,0000 0000 0000 0000 000000
2014-02-22 00:09:35,0.26,1.49,0.00,17.79,23.40,26.52,6.23,31.63,1028.60,2054.99,2971.38,2911.51,3164.48,349.95,333.63,5.27,0000 0000 0000 0000 000000
2014-02-22 00:10:36,0.27,1.49,0.00,17.81,23.40,26.53,6.22,32.00,1028.62,2054.99,2970.95,2911.16,3164.17,349.71,333.37,5.28,0000 0000 0000 0000 000000
2014-02-22 00:11:36,0.23,1.49,0.00,17.81,23.40,26.51,6.18,31.54,1028.69,2054.99,2970.37,2910.68,3163.68,349.79,333.43,5.28,0000 0000 0000 0000 000000
2014-02-22 00:12:36,0.26,1.49,0.00,17.82,23.40,26.54,6.28,31.71,1028.78,2054.99,2969.94,2910.24,3163.24,350.38,334.05,5.29,0000 0000 0000 0000 000000
2014-02-22 00:13:37,0.24,1.49,0.00,17.82,23.40,26.52,6.42,31.71,1028.81,2054.99,2969.37,2909.93,3162.84,350.54,334.21,5.30,0000 0000 0000 0000 000000
2014-02-22 00:14:37,0.24,1.49,0.00,17.82,23.40,26.52,6.20,31.63,1028.82,2054.99,2968.81,2909.40,3162.33,349.44,332.89,5.30,0000 0000 0000 0000 000000
2014-02-22 00:15:37,0.27,1.49,0.00,17.82,23.40,26.53,6.35,31.67,1028.82,2054.99,2968.29,2909.12,3161.95,350.25,333.93,5.31,0000 0000 0000 0000 000000
2014-02-22 00:16:38,0.23,1.50,0.00,17.82,23.40,26.52,6.11,31.54,1028.82,2054.98,2967.80,2908.63,3161.38,349.83,333.53,5.31,0000 0000 0000 0000 000000
2014-02-22 00:17:38,0.26,1.50,0.00,17.82,23.40,26.52,6.32,31.58,1028.82,2054.99,2967.28,2908.23,3161.03,350.21,334.07,5.32,0000 0000 0000 0000 000000
2014-02-22 00:18:38,0.26,1.50,0.00,17.82,23.40,26.49,6.13,31.46,1028.82,2054.99,2966.64,2907.86,3160.45,349.34,333.07,5.33,0000 0000 0000 0000 000000
2014-02-22 00:19:38,0.27,1.50,0.00,17.82,23.40,26.47,6.29,31.83,1028.82,2054.99,2966.20,2907.37,3160.14,350.26,333.94,5.33,0000 0000 0000 0000 000000
2014-02-22 00:20:39,0.25,1.50,0.00,17.82,23.40,26.49,6.09,31.71,1028.82,2054.99,2965.62,2907.10,3159.60,348.35,332.24,5.34,0000 0000 0000 0000 000000
2014-02-22 00:21:39,0.24,1.50,0.00,17.82,23.40,26.50,6.23,31.67,1028.82,2054.99,2965.13,2906.55,3159.21,349.75,333.46,5.34,0000 0000 0000 0000 000000
2014-02-22 00:22:39,0.27,1.51,0.00,17.81,23.40,26.49,6.38,31.58,1028.82,2054.98,2964.49,2906.20,3158.78,350.54,334.21,5.35,0000 0000 0000 0000 000000
2014-02-22 00:23:40,0.24,1.51,0.00,17.81,23.40,26.51,6.25,31.79,1028.83,2054.99,2964.06,2905.80,3158.30,349.85,333.55,5.35,0000 0000 0000 0000 000000
2014-02-22 00:24:40,0.26,1.51,0.00,17.82,23.40,26.50,6.11,31.67,1028.83,2054.96,2963.45,2905.29,3157.84,349.59,333.31,5.36,0000 0000 0000 0000 000000
2014-02-22 00:25:40,0.26,1.51,0.00,17.82,23.40,26.51,6.27,31.63,1028.85,2054.96,2962.94,2904.86,3157.31,350.58,334.27,5.37,0000 0000 0000 0000 000000
2014-02-22 00:26:41,0.28,1.51,0.00,17.82,23.40,26.47,6.27,31.58,1028.88,2054.98,2962.37,2904.34,3156.91,349.59,333.32,5.37,0000 0000 0000 0000 000000
2014-02-22 00:27:41,0.29,1.51,0.00,17.82,23.40,26.50,6.33,31.79,1028.98,2054.97,2961.89,2904.11,3156.36,350.09,333.40,5.38,0000 0000 0000 0000 000000
2014-02-22 00:28:41,0.22,1.51,0.00,17.82,23.40,26.53,6.17,31.96,1029.04,2054.99,2961.33,2903.70,3156.05,349.32,333.11,5.38,0000 0000 0000 0000 000000
2014-02-22 00:29:41,0.25,1.52,0.00,17.82,23.40,26.48,6.28,32.17,1029.00,2054.99,2960.72,2903.25,3155.46,350.67,334.39,5.39,0000 0000 0000 0000 000000
2014-02-22 00:30:42,0.26,1.52,0.00,17.82,23.40,26.50,6.18,32.17,1029.06,2054.97,2960.25,2902.86,3155.14,349.22,333.03,5.40,0000 0000 0000 0000 000000
2014-02-22 00:31:42,0.26,1.52,0.00,17.82,23.40,26.47,6.21,31.92,1029.15,2054.98,2959.64,2902.33,3154.56,349.78,333.59,5.40,0000 0000 0000 0000 000000
2014-02-22 00:32:42,0.28,1.52,0.00,17.82,23.40,26.44,6.34,31.38,1029.29,2054.98,2959.22,2902.06,3154.20,351.16,334.95,5.41,0000 0000 0000 0000 000000
2014-02-22 00:33:43,0.21,1.52,0.00,17.83,23.40,26.52,6.28,31.71,1029.29,2054.98,2958.65,2901.56,3153.69,350.62,334.43,5.41,0000 0000 0000 0000 000000
2014-02-22 00:34:43,0.28,1.53,0.00,17.84,23.40,26.55,6.32,31.79,1029.24,2054.98,2958.18,2901.20,3153.25,351.34,335.09,5.42,0000 0000 0000 0000 000000
2014-02-22 00:35:43,0.23,1.53,0.00,17.84,23.40,26.49,6.22,31.50,1029.07,2054.99,2957.61,2900.88,3152.91,350.03,333.77,5.43,0000 0000 0000 0000 000000
2014-02-22 00:36:43,0.26,1.53,0.00,17.84,23.40,26.50,6.20,31.83,1029.07,2054.99,2957.15,2900.36,3152.36,349.99,333.74,5.43,0000 0000 0000 0000 000000
2014-02-22 00:37:44,0.25,1.53,0.00,17.84,23.40,26.49,6.23,31.58,1028.98,2054.98,2956.55,2900.11,3152.06,349.86,333.81,5.44,0000 0000 0000 0000 000000
2014-02-22 00:38:44,0.21,1.53,0.00,17.84,23.40,26.52,6.22,31.79,1028.91,2054.98,2956.14,2899.64,3151.50,350.59,334.14,5.44,0000 0000 0000 0000 000000
2014-02-22 00:39:44,0.28,1.53,0.00,17.84,23.40,26.52,6.18,31.83,1028.85,2054.99,2955.53,2899.23,3151.16,349.51,333.20,5.45,0000 0000 0000 0000 000000
2014-02-22 00:40:45,0.24,1.53,0.00,17.84,23.40,26.52,6.14,31.67,1028.87,2054.99,2955.13,2898.91,3150.59,350.51,334.27,5.45,0000 0000 0000 0000 000000
2014-02-22 00:41:45,0.27,1.54,0.00,17.84,23.40,26.57,6.27,31.46,1028.87,2054.98,2954.53,2898.38,3150.21,349.78,333.48,5.46,0000 0000 0000 0000 000000
2014-02-22 00:42:45,0.24,1.54,0.00,17.84,23.40,26.51,6.15,31.83,1028.92,2054.99,2954.10,2898.12,3149.86,349.55,333.50,5.47,0000 0000 0000 0000 000000
2014-02-22 00:43:45,0.22,1.54,0.00,17.84,23.40,26.53,6.23,31.79,1028.85,2054.97,2953.49,2897.65,3149.34,349.53,333.11,5.47,0000 0000 0000 0000 000000
2014-02-22 00:44:46,0.26,1.54,0.00,17.84,23.40,26.56,6.17,31.63,1028.85,2054.96,2953.01,2897.24,3149.02,349.80,333.20,5.48,0000 0000 0000 0000 000000
2014-02-22 00:45:46,0.24,1.54,0.00,17.84,23.40,26.52,6.31,31.92,1028.84,2054.96,2952.40,2896.97,3148.46,350.46,333.94,5.48,0000 0000 0000 0000 000000
2014-02-22 00:46:46,0.25,1.54,0.00,17.86,23.40,26.49,6.19,31.71,1028.83,2054.98,2952.07,2896.42,3148.15,349.44,333.12,5.49,0000 0000 0000 0000 000000
2014-02-22 00:47:46,0.25,1.54,0.00,17.86,23.40,26.54,6.28,31.71,1028.83,2054.98,2951.46,2896.15,3147.68,349.81,333.47,5.50,0000 0000 0000 0000 000000
2014-02-22 00:48:47,0.21,1.55,0.00,17.87,23.40,26.52,6.19,31.92,1028.83,2054.98,2951.03,2895.80,3147.27,349.50,333.17,5.50,0000 0000 0000 0000 000000
2014-02-22 00:49:47,0.25,1.55,0.00,17.87,23.40,26.53,6.23,32.04,1028.83,2054.99,2950.42,2895.30,3147.05,350.07,333.70,5.51,0000 0000 0000 0000 000000
2014-02-22 00:50:47,0.23,1.55,0.00,17.87,23.40,26.56,6.17,31.79,1028.83,2054.99,2950.01,2895.04,3146.52,349.81,333.45,5.51,0000 0000 0000 0000 000000
2014-02-22 00:51:47,0.25,1.55,0.00,17.87,23.40,26.53,6.33,32.00,1028.87,2054.99,2949.41,2894.51,3146.17,349.71,333.37,5.52,0000 0000 0000 0000 000000
2014-02-22 00:52:48,0.26,1.55,0.00,17.87,23.40,26.54,6.20,31.54,1028.94,2054.99,2948.94,2894.18,3145.63,349.83,333.51,5.52,0000 0000 0000 0000 000000
2014-02-22 00:53:48,0.24,1.55,0.00,17.88,23.40,26.55,6.18,31.67,1029.05,2054.99,2948.37,2893.78,3145.23,349.65,333.37,5.53,0000 0000 0000 0000 000000
2014-02-22 00:54:48,0.25,1.55,0.00,17.87,23.40,26.53,6.22,31.83,1029.21,2054.98,2947.96,2893.28,3144.89,349.77,333.53,5.54,0000 0000 0000 0000 000000
2014-02-22 00:55:49,0.25,1.56,0.00,17.87,23.40,26.53,6.23,31.92,1029.28,2054.98,2947.39,2893.09,3144.36,349.55,333.35,5.54,0000 0000 0000 0000 000000
2014-02-22 00:56:49,0.19,1.56,0.00,17.87,23.40,26.53,6.18,31.71,1029.30,2054.99,2946.97,2892.64,3144.10,349.85,333.65,5.55,0000 0000 0000 0000 000000
2014-02-22 00:57:49,0.25,1.56,0.00,17.87,23.40,26.55,6.11,31.67,1029.31,2054.99,2946.39,2892.23,3143.61,349.69,333.50,5.55,0000 0000 0000 0000 000000
2014-02-22 00:58:49,0.25,1.56,0.00,17.87,23.40,26.53,6.24,31.96,1029.31,2054.99,2946.09,2892.05,3143.22,350.87,334.63,5.56,0000 0000 0000 0000 000000
2014-02-22 00:59:50,0.18,1.56,0.00,17.87,23.40,26.56,6.34,31.92,1029.31,2054.99,2945.51,2891.55,3142.94,350.48,334.25,5.57,0000 0000 0000 0000 000000
2014-02-22 01:00:50,0.26,1.56,0.00,17.87,23.40,26.54,6.27,31.83,1029.31,2054.99,2945.10,2891.19,3142.38,350.08,333.87,5.57,0000 0000 0000 0000 000000
2014-02-22 01:01:50,0.24,1.56,0.00,17.88,23.40,26.54,6.42,31.92,1029.31,2054.99,2944.49,2890.85,3142.05,350.53,334.29,5.58,0000 0000 0000 0000 000000
2014-02-22 01:02:50,0.26,1.57,0.00,17.89,23.40,26.50,6.25,31.83,1029.31,2054.98,2944.11,2890.33,3141.45,349.59,333.12,5.58,0000 0000 0000 0000 000000
2014-02-22 01:03:51,0.25,1.57,0.00,17.89,23.40,26.55,6.41,31.83,1029.33,2054.99,2943.52,2890.06,3141.12,351.09,334.82,5.59,0000 0000 0000 0000 000000
2014-02-22 01:04:51,0.23,1.57,0.00,17.89,23.40,26.52,6.27,31.58,1029.34,2054.99,2943.15,2889.52,3140.59,349.62,333.41,5.60,0000 0000 0000 0000 000000
2014-02-22 01:05:51,0.26,1.57,0.00,17.89,23.40,26.53,6.32,31.79,1029.35,2054.98,2942.59,2889.19,3140.21,350.29,334.05,5.60,0000 0000 0000 0000 000000
2014-02-22 01:06:51,0.22,1.57,0.00,17.89,23.40,26.51,5.98,31.63,1029.40,2054.99,2942.20,2888.95,3139.83,349.51,333.33,5.61,0000 0000 0000 0000 000000
2014-02-22 01:07:52,0.21,1.57,0.00,17.90,23.40,26.47,6.14,31.58,1029.46,2054.99,2941.68,2888.43,3139.31,348.87,332.74,5.61,0000 0000 0000 0000 000000
2014-02-22 01:08:52,0.28,1.57,0.00,17.90,23.41,26.49,6.31,31.42,1029.40,2054.99,2941.23,2888.14,3139.02,350.97,334.71,5.62,0000 0000 0000 0000 000000
2014-02-22 01:09:52,0.18,1.57,0.00,17.89,23.41,26.47,6.11,31.58,1029.36,2054.99,2940.71,2887.76,3138.45,349.12,332.94,5.62,0000 0000 0000 0000 000000
2014-02-22 01:10:52,0.30,1.58,0.00,17.90,23.41,26.49,6.18,31.54,1029.36,2054.99,2940.26,2887.29,3138.06,349.97,333.75,5.63,0000 0000 0000 0000 000000
2014-02-22 01:11:52,0.22,1.58,0.00,17.92,23.41,26.49,6.07,31.54,1029.35,2054.99,2939.78,2887.00,3137.50,349.50,333.28,5.64,0000 0000 0000 0000 000000
2014-02-22 01:12:53,0.27,1.58,0.00,17.92,23.41,26.54,6.33,31.75,1029.34,2054.99,2939.23,2886.43,3137.14,351.24,334.93,5.64,0000 0000 0000 0000 000000
2014-02-22 01:13:53,0.26,1.58,0.00,17.92,23.42,26.51,6.24,31.83,1029.36,2054.98,2938.59,2886.13,3136.55,350.11,333.33,5.65,0000 0000 0000 0000 000000
2014-02-22 01:14:53,0.24,1.58,0.00,17.92,23.42,26.51,6.28,31.71,1029.36,2054.98,2938.17,2885.60,3136.16,350.01,333.76,5.65,0000 0000 0000 0000 000000
2014-02-22 01:15:53,0.27,1.58,0.00,17.92,23.42,26.51,6.06,31.33,1029.35,2054.97,2937.57,2885.21,3135.62,349.66,333.42,5.66,0000 0000 0000 0000 000000
2014-02-22 01:16:54,0.27,1.59,0.00,17.93,23.42,26.53,6.28,31.75,1029.34,2054.99,2937.14,2884.95,3135.23,350.06,333.90,5.67,0000 0000 0000 0000 000000
2014-02-22 01:17:54,0.22,1.59,0.00,17.94,23.42,26.54,6.24,31.92,1029.32,2054.98,2936.54,2884.41,3135.04,349.98,333.33,5.67,0000 0000 0000 0000 000000
2014-02-22 01:18:54,0.24,1.59,0.00,17.94,23.42,26.54,6.21,31.58,1029.31,2054.97,2936.13,2884.13,3134.53,350.03,333.62,5.68,0000 0000 0000 0000 000000
2014-02-22 01:19:55,0.20,1.59,0.00,17.94,23.42,26.52,6.13,31.92,1029.31,2054.97,2935.55,2883.71,3134.19,348.67,332.44,5.68,0000 0000 0000 0000 000000
2014-02-22 01:20:55,0.27,1.59,0.00,17.93,23.42,26.50,6.16,31.67,1029.31,2054.99,2935.10,2883.26,3133.74,349.65,333.54,5.69,0000 0000 0000 0000 000000
2014-02-22 01:21:55,0.26,1.59,0.00,17.94,23.42,26.50,6.28,31.67,1029.32,2054.99,2934.47,2882.97,3133.28,349.09,333.07,5.69,0000 0000 0000 0000 000000
2014-02-22 01:22:55,0.24,1.59,0.00,17.94,23.42,26.49,6.32,31.46,1029.31,2054.99,2934.02,2882.41,3132.90,350.43,334.43,5.70,0000 0000 0000 0000 000000
2014-02-22 01:23:56,0.28,1.60,0.00,17.94,23.42,26.49,6.22,31.67,1029.31,2054.98,2933.42,2882.10,3132.36,350.44,333.67,5.71,0000 0000 0000 0000 000000
2014-02-22 01:24:56,0.23,1.60,0.00,17.94,23.42,26.50,6.17,31.42,1029.31,2054.96,2932.96,2881.57,3132.01,350.23,333.93,5.71,0000 0000 0000 0000 000000
2014-02-22 01:25:56,0.25,1.60,0.00,17.94,23.42,26.51,6.22,31.58,1029.31,2054.97,2932.38,2881.21,3131.43,349.86,333.58,5.72,0000 0000 0000 0000 000000
2014-02-22 01:26:57,0.25,1.60,0.00,17.94,23.42,26.51,6.27,31.50,1029.31,2054.98,2932.00,2880.92,3131.13,349.87,333.59,5.72,0000 0000 0000 0000 000000
2014-02-22 01:27:57,0.22,1.60,0.00,17.95,23.42,26.53,6.27,31.71,1029.31,2054.97,2931.41,2880.39,3130.60,350.38,334.06,5.73,0000 0000 0000 0000 000000
2014-02-22 01:28:57,0.29,1.60,0.00,17.97,23.42,26.50,6.22,31.92,1029.29,2054.99,2930.97,2880.11,3130.21,349.70,333.40,5.74,0000 0000 0000 0000 000000
2014-02-22 01:29:57,0.21,1.60,0.00,17.97,23.42,26.50,6.18,31.63,1029.25,2054.98,2930.38,2879.59,3129.74,350.66,334.29,5.74,0000 0000 0000 0000 000000
2014-02-22 01:30:57,0.31,1.61,0.00,17.97,23.42,26.51,6.17,31.79,1029.13,2054.96,2929.81,2879.22,3129.26,349.14,332.80,5.75,0000 0000 0000 0000 000000
2014-02-22 01:31:58,0.21,1.61,0.00,17.98,23.42,26.50,6.28,31.83,1028.97,2054.94,2929.28,2878.97,3128.90,350.50,334.04,5.75,0000 0000 0000 0000 000000
2014-02-22 01:32:58,0.22,1.61,0.00,17.99,23.43,26.47,6.27,31.58,1028.97,2054.97,2928.68,2878.46,3128.35,350.20,333.74,5.76,0000 0000 0000 0000 000000
2014-02-22 01:33:58,0.32,1.61,0.00,17.98,23.43,26.47,6.19,32.04,1028.92,2054.97,2928.19,2878.15,3128.09,349.04,332.62,5.77,0000 0000 0000 0000 000000
2014-02-22 01:34:58,0.19,1.61,0.00,17.98,23.44,26.52,6.09,31.88,1029.21,2054.95,2927.55,2877.75,3127.61,349.01,332.68,5.77,0000 0000 0000 0000 000000
2014-02-22 01:35:59,0.30,1.61,0.00,17.99,23.44,26.50,6.10,31.63,1029.12,2054.93,2927.12,2877.28,3127.22,349.35,332.98,5.78,0000 0000 0000 0000 000000
2014-02-22 01:36:59,0.19,1.61,0.00,17.99,23.44,26.54,6.28,31.75,1029.09,2054.94,2926.49,2877.01,3126.77,349.72,333.32,5.78,0000 0000 0000 0000 000000
2014-02-22 01:37:59,0.26,1.62,0.00,17.99,23.44,26.49,6.10,31.75,1029.11,2054.93,2925.88,2876.48,3126.28,350.50,334.06,5.79,0000 0000 0000 0000 000000
2014-02-22 01:38:59,0.30,1.62,0.00,17.99,23.44,26.56,6.23,32.04,1029.19,2054.92,2925.32,2876.16,3125.92,349.20,332.85,5.79,0000 0000 0000 0000 000000
2014-02-22 01:39:59,0.22,1.62,0.00,17.99,23.44,26.54,6.28,31.42,1029.28,2054.91,2924.87,2875.62,3125.37,350.11,333.75,5.80,0000 0000 0000 0000 000000
2014-02-22 01:41:00,0.31,1.62,0.00,18.00,23.44,26.52,6.29,31.75,1029.26,2054.92,2924.34,2875.22,3125.02,349.75,333.39,5.81,0000 0000 0000 0000 000000
2014-02-22 01:42:00,0.21,1.62,0.00,18.02,23.45,26.48,6.12,31.75,1029.13,2054.94,2923.84,2874.98,3124.46,348.86,332.49,5.81,0000 0000 0000 0000 000000
2014-02-22 01:43:00,0.27,1.62,0.00,18.02,23.45,26.50,6.27,31.96,1029.23,2054.96,2923.32,2874.47,3124.16,349.73,333.34,5.82,0000 0000 0000 0000 000000
2014-02-22 01:44:00,0.27,1.63,0.00,18.02,23.45,26.54,6.21,32.17,1029.26,2054.92,2922.75,2874.17,3123.76,349.81,333.42,5.82,0000 0000 0000 0000 000000
2014-02-22 01:45:01,0.21,1.63,0.00,18.02,23.45,26.52,6.22,31.83,1029.28,2054.92,2922.25,2873.77,3123.28,350.59,333.90,5.83,0000 0000 0000 0000 000000
2014-02-22 01:46:01,0.25,1.63,0.00,18.02,23.45,26.51,6.36,31.79,1029.22,2054.95,2921.70,2873.29,3122.98,349.90,333.88,5.84,0000 0000 0000 0000 000000
2014-02-22 01:47:01,0.27,1.63,0.00,18.02,23.45,26.50,6.16,31.71,1029.08,2054.94,2921.23,2873.04,3122.45,349.57,332.91,5.84,0000 0000 0000 0000 000000
2014-02-22 01:48:01,0.21,1.63,0.00,18.03,23.45,26.50,6.24,32.08,1028.86,2054.95,2920.64,2872.49,3122.15,350.43,333.87,5.85,0000 0000 0000 0000 000000
2014-02-22 01:49:01,0.30,1.63,0.00,18.02,23.45,26.52,6.26,32.00,1028.83,2054.94,2920.22,2872.17,3121.78,349.79,333.26,5.85,0000 0000 0000 0000 000000
2014-02-22 01:50:02,0.20,1.63,0.00,18.02,23.45,26.50,6.18,31.92,1028.83,2054.96,2919.73,2871.85,3121.29,349.69,333.17,5.86,0000 0000 0000 0000 000000
2014-02-22 01:51:02,0.27,1.64,0.00,18.02,23.45,26.49,6.23,32.04,1028.88,2054.94,2919.24,2871.35,3120.94,349.08,332.60,5.86,0000 0000 0000 0000 000000
2014-02-22 01:52:02,0.22,1.64,0.00,18.02,23.45,26.49,6.32,31.83,1029.08,2054.91,2918.68,2871.07,3120.39,351.04,334.54,5.87,0000 0000 0000 0000 000000
2014-02-22 01:53:02,0.21,1.64,0.00,18.02,23.45,26.51,6.15,31.63,1029.28,2054.93,2918.19,2870.52,3120.08,349.37,333.01,5.88,0000 0000 0000 0000 000000
2014-02-22 01:54:03,0.29,1.64,0.00,18.02,23.45,26.55,6.17,31.46,1029.31,2054.94,2917.55,2870.19,3119.55,349.66,333.30,5.88,0000 0000 0000 0000 000000
2014-02-22 01:55:03,0.29,1.64,0.00,18.02,23.45,26.56,6.18,31.54,1029.31,2054.94,2917.15,2869.89,3119.18,350.13,333.91,5.89,0000 0000 0000 0000 000000
2014-02-22 01:56:03,0.19,1.64,0.00,18.02,23.45,26.52,6.05,31.71,1029.31,2054.93,2916.56,2869.35,3118.67,348.34,332.99,5.89,0000 0000 0000 0000 000000
2014-02-22 01:57:03,0.33,1.65,0.00,18.02,23.45,26.53,6.30,32.04,1029.31,2054.91,2916.19,2869.11,3118.24,349.49,333.14,5.90,0000 0000 0000 0000 000000
2014-02-22 01:58:04,0.11,1.65,0.00,18.01,23.45,26.51,6.18,31.96,1029.31,2054.88,2915.68,2868.67,3117.95,349.76,333.40,5.91,0000 0000 0000 0000 000000
2014-02-22 01:59:04,0.30,1.65,0.00,18.01,23.46,26.57,6.38,31.75,1029.31,2054.88,2915.17,2868.25,3117.43,350.50,334.11,5.91,0000 0000 0000 0000 000000
2014-02-22 02:00:04,0.25,1.65,0.00,18.01,23.46,26.55,6.20,31.88,1029.31,2054.93,2914.54,2868.02,3117.14,349.86,333.49,5.92,0000 0000 0000 0000 000000
2014-02-22 02:01:04,0.22,1.65,0.00,18.01,23.47,26.55,6.29,31.83,1029.31,2054.91,2914.18,2867.52,3116.63,349.91,333.59,5.92,0000 0000 0000 0000 000000
2014-02-22 02:02:04,0.24,1.65,0.00,18.01,23.47,26.52,6.23,31.50,1029.31,2054.82,2913.74,2867.19,3116.22,350.42,333.87,5.93,0000 0000 0000 0000 000000
2014-02-22 02:03:05,0.12,1.65,0.00,18.02,23.47,26.52,6.23,31.50,1029.31,2054.80,2913.28,2866.82,3115.80,349.77,333.40,5.94,0000 0000 0000 0000 000000
2014-02-22 02:04:05,0.28,1.65,0.00,18.03,23.47,26.52,6.30,31.50,1029.31,2054.82,2912.91,2866.33,3115.29,350.20,333.58,5.94,0000 0000 0000 0000 000000
2014-02-22 02:05:05,0.26,1.66,0.00,18.04,23.47,26.55,6.18,31.46,1029.31,2054.73,2912.35,2866.09,3114.80,350.38,334.21,5.95,0000 0000 0000 0000 000000
2014-02-22 02:06:05,0.14,1.66,0.00,18.04,23.47,26.55,6.25,31.54,1029.31,2054.71,2911.96,2865.59,3114.30,349.82,333.49,5.95,0000 0000 0000 0000 000000
2014-02-22 02:07:05,0.32,1.66,0.00,18.04,23.47,26.54,6.23,31.75,1029.31,2054.68,2911.38,2865.21,3113.94,350.13,332.74,5.96,0000 0000 0000 0000 000000
2014-02-22 02:08:06,0.16,1.66,0.00,18.04,23.47,26.56,6.27,31.79,1029.31,2054.62,2910.89,2864.89,3113.39,350.03,333.25,5.96,0000 0000 0000 0000 000000
2014-02-22 02:09:06,0.20,1.66,0.00,18.04,23.47,26.58,6.21,31.54,1029.31,2054.58,2910.33,2864.36,3113.08,349.46,333.52,5.97,0000 0000 0000 0000 000000
2014-02-22 02:10:06,0.28,1.66,0.00,18.04,23.47,26.57,6.24,31.67,1029.31,2054.47,2909.76,2864.07,3112.50,349.56,333.18,5.98,0000 0000 0000 0000 000000
2014-02-22 02:11:06,0.07,1.66,0.00,18.05,23.47,26.53,6.13,31.71,1029.32,2054.33,2909.27,2863.55,3112.14,349.89,333.49,5.98,0000 0000 0000 0000 000000
2014-02-22 02:12:06,0.17,1.66,0.00,18.05,23.47,26.51,6.07,31.42,1029.33,2054.22,2908.72,2863.21,3111.60,350.67,334.23,5.99,0000 0000 0000 0000 000000
2014-02-22 02:13:07,0.17,1.66,0.00,18.06,23.47,26.54,6.17,31.54,1029.34,2054.28,2908.24,2862.92,3111.21,349.59,333.19,5.99,0000 0000 0000 0000 000000
2014-02-22 02:14:07,0.34,1.67,0.00,18.06,23.47,26.56,6.16,31.42,1029.34,2054.39,2907.68,2862.39,3110.79,350.64,334.19,6.00,0000 0000 0000 0000 000000
2014-02-22 02:15:07,0.35,1.67,0.00,18.07,23.47,26.53,6.39,31.88,1029.32,2054.58,2907.22,2862.11,3110.30,350.17,333.74,6.01,0000 0000 0000 0000 000000
2014-02-22 02:16:07,0.36,1.67,0.00,18.07,23.47,26.55,6.26,31.71,1029.33,2054.63,2906.68,2861.63,3110.05,350.35,333.91,6.01,0000 0000 0000 0000 000000
2014-02-22 02:17:08,0.33,1.67,0.00,18.07,23.47,26.60,6.26,31.79,1029.33,2054.41,2906.17,2861.23,3109.49,350.03,333.65,6.02,0000 0000 0000 0000 000000
2014-02-22 02:18:08,0.02,1.67,0.00,18.07,23.47,26.57,6.24,31.50,1029.36,2054.32,2905.51,2860.80,3109.09,350.54,334.10,6.02,0000 0000 0000 0000 000000
2014-02-22 02:19:08,0.24,1.67,0.00,18.07,23.47,26.55,6.16,31.71,1029.36,2054.24,2905.05,2860.30,3108.54,348.93,332.56,6.03,0000 0000 0000 0000 000000
2014-02-22 02:20:08,0.20,1.68,0.00,18.09,23.47,26.55,6.26,31.67,1029.34,2054.13,2904.43,2859.99,3108.19,350.45,333.98,6.03,0000 0000 0000 0000 000000
2014-02-22 02:21:09,0.15,1.68,0.00,18.09,23.48,26.55,6.27,31.58,1029.35,2054.14,2904.03,2859.43,3107.70,350.21,333.23,6.04,0000 0000 0000 0000 000000
2014-02-22 02:22:09,0.34,1.68,0.00,18.09,23.48,26.55,6.14,31.63,1029.36,2054.15,2903.44,2859.15,3107.25,349.62,332.97,6.05,0000 0000 0000 0000 000000
2014-02-22 02:23:09,0.20,1.68,0.00,18.09,23.48,26.57,6.25,31.92,1029.43,2054.17,2902.94,2858.77,3106.93,350.92,334.12,6.05,0000 0000 0000 0000 000000
2014-02-22 02:24:09,0.27,1.68,0.00,18.09,23.49,26.55,6.17,31.58,1029.37,2054.29,2902.38,2858.30,3106.39,349.21,332.81,6.06,0000 0000 0000 0000 000000
2014-02-22 02:25:10,0.39,1.68,0.00,18.10,23.49,26.54,6.12,31.75,1029.35,2054.31,2901.98,2858.01,3106.03,348.31,331.94,6.06,0000 0000 0000 0000 000000
2014-02-22 02:26:10,0.20,1.68,0.00,18.10,23.49,26.57,6.39,31.71,1029.34,2054.27,2901.40,2857.47,3105.46,350.64,334.15,6.07,0000 0000 0000 0000 000000
2014-02-22 02:27:10,0.29,1.69,0.00,18.11,23.49,26.62,6.23,31.88,1029.33,2054.24,2900.86,2857.15,3105.11,350.27,333.59,6.08,0000 0000 0000 0000 000000
2014-02-22 02:28:10,0.21,1.69,0.00,18.11,23.49,26.59,6.28,31.54,1029.35,2054.13,2900.32,2856.61,3104.53,350.60,334.01,6.08,0000 0000 0000 0000 000000
2014-02-22 02:29:11,0.23,1.69,0.00,18.11,23.50,26.54,6.21,32.04,1029.36,2054.12,2899.78,2856.22,3104.18,349.34,333.13,6.09,0000 0000 0000 0000 000000
2014-02-22 02:30:11,0.24,1.69,0.00,18.12,23.50,26.56,6.24,31.75,1029.34,2054.11,2899.26,2855.95,3103.68,350.75,334.42,6.09,0000 0000 0000 0000 000000
2014-02-22 02:31:11,0.22,1.69,0.00,18.12,23.50,26.52,6.34,31.96,1029.43,2054.15,2898.77,2855.41,3103.25,350.72,334.57,6.10,0000 0000 0000 0000 000000
2014-02-22 02:32:11,0.34,1.69,0.00,18.12,23.49,26.52,6.18,31.79,1029.56,2054.13,2898.27,2855.13,3102.79,350.16,333.74,6.10,0000 0000 0000 0000 000000
2014-02-22 02:33:12,0.21,1.70,0.00,18.12,23.50,26.53,6.28,31.63,1029.58,2054.19,2897.76,2854.69,3102.33,350.37,333.95,6.11,0000 0000 0000 0000 000000
2014-02-22 02:34:12,0.33,1.70,0.00,18.12,23.50,26.53,6.10,31.79,1029.72,2054.18,2897.27,2854.26,3102.02,349.53,333.19,6.12,0000 0000 0000 0000 000000
2014-02-22 02:35:12,0.21,1.70,0.00,18.12,23.50,26.55,6.26,31.71,1029.75,2054.16,2896.64,2853.90,3101.46,350.77,334.39,6.12,0000 0000 0000 0000 000000
2014-02-22 02:36:12,0.27,1.70,0.00,18.12,23.50,26.56,6.21,31.71,1029.68,2054.20,2896.20,2853.37,3101.14,349.30,332.96,6.13,0000 0000 0000 0000 000000
2014-02-22 02:37:12,0.28,1.70,0.00,18.12,23.50,26.56,6.27,31.58,1029.65,2054.20,2895.62,2853.12,3100.62,350.23,333.84,6.13,0000 0000 0000 0000 000000